Year,Month,Day,Hour,Minute,Value (Times are PST for temperature in C)
2016,08,19,00,00,22.00
2016,08,19,00,01,21.90
2016,08,19,00,02,21.90
2016,08,19,00,03,21.90
2016,08,19,00,04,21.90
2016,08,19,00,05,21.90
2016,08,19,00,06,21.80
2016,08,19,00,07,21.80
2016,08,19,00,08,21.80
2016,08,19,00,09,21.80
2016,08,19,00,10,21.80
2016,08,19,00,11,21.80
2016,08,19,00,12,21.80
2016,08,19,00,13,21.80
2016,08,19,00,14,21.70
2016,08,19,00,15,21.70
2016,08,19,00,16,21.70
2016,08,19,00,17,21.70
2016,08,19,00,18,21.70
2016,08,19,00,19,21.70
2016,08,19,00,20,21.70
2016,08,19,00,21,21.60
2016,08,19,00,22,21.60
2016,08,19,00,23,21.60
2016,08,19,00,24,21.60
2016,08,19,00,25,21.60
2016,08,19,00,26,21.60
2016,08,19,00,27,21.60
2016,08,19,00,28,21.50
2016,08,19,00,29,21.50
2016,08,19,00,30,21.50
2016,08,19,00,31,21.50
2016,08,19,00,32,21.50
2016,08,19,00,33,21.50
2016,08,19,00,34,21.50
2016,08,19,00,35,21.50
2016,08,19,00,36,21.50
2016,08,19,00,37,21.50
2016,08,19,00,38,21.40
2016,08,19,00,39,21.50
2016,08,19,00,40,21.50
2016,08,19,00,41,21.50
2016,08,19,00,42,21.50
2016,08,19,00,43,21.40
2016,08,19,00,44,21.40
2016,08,19,00,45,21.40
2016,08,19,00,46,21.40
2016,08,19,00,47,21.40
2016,08,19,00,48,21.30
2016,08,19,00,49,21.30
2016,08,19,00,50,21.30
2016,08,19,00,51,21.30
2016,08,19,00,52,21.30
2016,08,19,00,53,21.20
2016,08,19,00,54,21.20
2016,08,19,00,55,21.20
2016,08,19,00,56,21.20
2016,08,19,00,57,21.20
2016,08,19,00,58,21.20
2016,08,19,00,59,21.20
2016,08,19,01,00,21.20
2016,08,19,01,01,21.10
2016,08,19,01,02,21.10
2016,08,19,01,03,21.10
2016,08,19,01,04,21.10
2016,08,19,01,05,21.10
2016,08,19,01,06,21.10
2016,08,19,01,07,21.10
2016,08,19,01,08,21.10
2016,08,19,01,09,21.10
2016,08,19,01,10,21.10
2016,08,19,01,11,21.10
2016,08,19,01,12,21.10
2016,08,19,01,13,21.10
2016,08,19,01,14,21.10
2016,08,19,01,15,21.10
2016,08,19,01,16,21.10
2016,08,19,01,17,21.00
2016,08,19,01,18,21.00
2016,08,19,01,19,20.90
2016,08,19,01,20,20.90
2016,08,19,01,21,20.90
2016,08,19,01,22,20.80
2016,08,19,01,23,20.80
2016,08,19,01,24,20.70
2016,08,19,01,25,20.70
2016,08,19,01,26,20.60
2016,08,19,01,27,20.50
2016,08,19,01,28,20.50
2016,08,19,01,29,20.40
2016,08,19,01,30,20.40
2016,08,19,01,31,20.30
2016,08,19,01,32,20.20
2016,08,19,01,33,20.20
2016,08,19,01,34,20.20
2016,08,19,01,35,20.10
2016,08,19,01,36,20.10
2016,08,19,01,37,20.10
2016,08,19,01,38,20.10
2016,08,19,01,39,20.10
2016,08,19,01,40,20.00
2016,08,19,01,41,20.00
2016,08,19,01,42,20.00
2016,08,19,01,43,19.90
2016,08,19,01,44,19.90
2016,08,19,01,45,19.90
2016,08,19,01,46,19.90
2016,08,19,01,47,19.80
2016,08,19,01,48,19.80
2016,08,19,01,49,19.80
2016,08,19,01,50,19.80
2016,08,19,01,51,19.70
2016,08,19,01,52,19.70
2016,08,19,01,53,19.70
2016,08,19,01,54,19.70
2016,08,19,01,55,19.70
2016,08,19,01,56,19.70
2016,08,19,01,57,19.60
2016,08,19,01,58,19.60
2016,08,19,01,59,19.60
2016,08,19,02,00,19.60
2016,08,19,02,01,19.60
2016,08,19,02,02,19.60
2016,08,19,02,03,19.60
2016,08,19,02,04,19.60
2016,08,19,02,05,19.60
2016,08,19,02,06,19.60
2016,08,19,02,07,19.60
2016,08,19,02,08,19.60
2016,08,19,02,09,19.70
2016,08,19,02,10,19.70
2016,08,19,02,11,19.70
2016,08,19,02,12,19.80
2016,08,19,02,13,19.80
2016,08,19,02,14,19.80
2016,08,19,02,15,19.90
2016,08,19,02,16,19.90
2016,08,19,02,17,19.90
2016,08,19,02,18,19.90
2016,08,19,02,19,19.90
2016,08,19,02,20,19.80
2016,08,19,02,21,19.80
2016,08,19,02,22,19.80
2016,08,19,02,23,19.80
2016,08,19,02,24,19.80
2016,08,19,02,25,19.70
2016,08,19,02,26,19.70
2016,08,19,02,27,19.70
2016,08,19,02,28,19.70
2016,08,19,02,29,19.70
2016,08,19,02,30,19.70
2016,08,19,02,31,19.70
2016,08,19,02,32,19.70
2016,08,19,02,33,19.70
2016,08,19,02,34,19.70
2016,08,19,02,35,19.70
2016,08,19,02,36,19.70
2016,08,19,02,37,19.70
2016,08,19,02,38,19.70
2016,08,19,02,39,19.70
2016,08,19,02,40,19.70
2016,08,19,02,41,19.70
2016,08,19,02,42,19.70
2016,08,19,02,43,19.70
2016,08,19,02,44,19.70
2016,08,19,02,45,19.70
2016,08,19,02,46,19.70
2016,08,19,02,47,19.70
2016,08,19,02,48,19.60
2016,08,19,02,49,19.60
2016,08,19,02,50,19.60
2016,08,19,02,51,19.60
2016,08,19,02,52,19.60
2016,08,19,02,53,19.50
2016,08,19,02,54,19.50
2016,08,19,02,55,19.50
2016,08,19,02,56,19.40
2016,08,19,02,57,19.40
2016,08,19,02,58,19.40
2016,08,19,02,59,19.40
2016,08,19,03,00,19.40
2016,08,19,03,01,19.40
2016,08,19,03,02,19.40
2016,08,19,03,03,19.40
2016,08,19,03,04,19.40
2016,08,19,03,05,19.40
2016,08,19,03,06,19.40
2016,08,19,03,07,19.40
2016,08,19,03,08,19.40
2016,08,19,03,09,19.40
2016,08,19,03,10,19.40
2016,08,19,03,11,19.40
2016,08,19,03,12,19.40
2016,08,19,03,13,19.40
2016,08,19,03,14,19.40
2016,08,19,03,15,19.40
2016,08,19,03,16,19.30
2016,08,19,03,17,19.30
2016,08,19,03,18,19.30
2016,08,19,03,19,19.30
2016,08,19,03,20,19.30
2016,08,19,03,21,19.30
2016,08,19,03,22,19.30
2016,08,19,03,23,19.30
2016,08,19,03,24,19.30
2016,08,19,03,25,19.30
2016,08,19,03,26,19.30
2016,08,19,03,27,19.30
2016,08,19,03,28,19.30
2016,08,19,03,29,19.30
2016,08,19,03,30,19.30
2016,08,19,03,31,19.30
2016,08,19,03,32,19.40
2016,08,19,03,33,19.40
2016,08,19,03,34,19.40
2016,08,19,03,35,19.50
2016,08,19,03,36,19.50
2016,08,19,03,37,19.50
2016,08,19,03,38,19.50
2016,08,19,03,39,19.40
2016,08,19,03,40,19.40
2016,08,19,03,41,19.40
2016,08,19,03,42,19.40
2016,08,19,03,43,19.40
2016,08,19,03,44,19.30
2016,08,19,03,45,19.30
2016,08,19,03,46,19.30
2016,08,19,03,47,19.30
2016,08,19,03,48,19.30
2016,08,19,03,49,19.30
2016,08,19,03,50,19.30
2016,08,19,03,51,19.30
2016,08,19,03,52,19.20
2016,08,19,03,53,19.20
2016,08,19,03,54,19.20
2016,08,19,03,55,19.20
2016,08,19,03,56,19.10
2016,08,19,03,57,19.10
2016,08,19,03,58,19.10
2016,08,19,03,59,19.00
2016,08,19,04,00,19.00
2016,08,19,04,01,18.90
2016,08,19,04,02,18.90
2016,08,19,04,03,18.90
2016,08,19,04,04,18.80
2016,08,19,04,05,18.80
2016,08,19,04,06,18.80
2016,08,19,04,07,18.80
2016,08,19,04,08,18.80
2016,08,19,04,09,18.80
2016,08,19,04,10,18.80
2016,08,19,04,11,18.70
2016,08,19,04,12,18.70
2016,08,19,04,13,18.70
2016,08,19,04,14,18.70
2016,08,19,04,15,18.70
2016,08,19,04,16,18.70
2016,08,19,04,17,18.60
2016,08,19,04,18,18.60
2016,08,19,04,19,18.60
2016,08,19,04,20,18.60
2016,08,19,04,21,18.50
2016,08,19,04,22,18.50
2016,08,19,04,23,18.50
2016,08,19,04,24,18.50
2016,08,19,04,25,18.50
2016,08,19,04,26,18.40
2016,08,19,04,27,18.50
2016,08,19,04,28,18.40
2016,08,19,04,29,18.40
2016,08,19,04,30,18.40
2016,08,19,04,31,18.40
2016,08,19,04,32,18.40
2016,08,19,04,33,18.50
2016,08,19,04,34,18.50
2016,08,19,04,35,18.50
2016,08,19,04,36,18.50
2016,08,19,04,37,18.50
2016,08,19,04,38,18.50
2016,08,19,04,39,18.50
2016,08,19,04,40,18.50
2016,08,19,04,41,18.50
2016,08,19,04,42,18.50
2016,08,19,04,43,18.50
2016,08,19,04,44,18.50
2016,08,19,04,45,18.50
2016,08,19,04,46,18.50
2016,08,19,04,47,18.50
2016,08,19,04,48,18.50
2016,08,19,04,49,18.50
2016,08,19,04,50,18.50
2016,08,19,04,51,18.50
2016,08,19,04,52,18.50
2016,08,19,04,53,18.50
2016,08,19,04,54,18.40
2016,08,19,04,55,18.40
2016,08,19,04,56,18.40
2016,08,19,04,57,18.40
2016,08,19,04,58,18.40
2016,08,19,04,59,18.30
2016,08,19,05,00,18.30
2016,08,19,05,01,18.30
2016,08,19,05,02,18.20
2016,08,19,05,03,18.20
2016,08,19,05,04,18.10
2016,08,19,05,05,18.10
2016,08,19,05,06,18.00
2016,08,19,05,07,18.00
2016,08,19,05,08,17.90
2016,08,19,05,09,17.90
2016,08,19,05,10,17.90
2016,08,19,05,11,17.80
2016,08,19,05,12,17.80
2016,08,19,05,13,17.80
2016,08,19,05,14,17.80
2016,08,19,05,15,17.80
2016,08,19,05,16,17.70
2016,08,19,05,17,17.70
2016,08,19,05,18,17.70
2016,08,19,05,19,17.70
2016,08,19,05,20,17.60
2016,08,19,05,21,17.60
2016,08,19,05,22,17.60
2016,08,19,05,23,17.60
2016,08,19,05,24,17.60
2016,08,19,05,25,17.60
2016,08,19,05,26,17.60
2016,08,19,05,27,17.50
2016,08,19,05,28,17.50
2016,08,19,05,29,17.50
2016,08,19,05,30,17.50
2016,08,19,05,31,17.50
2016,08,19,05,32,17.40
2016,08,19,05,33,17.40
2016,08,19,05,34,17.40
2016,08,19,05,35,17.40
2016,08,19,05,36,17.40
2016,08,19,05,37,17.30
2016,08,19,05,38,17.30
2016,08,19,05,39,17.30
2016,08,19,05,40,17.20
2016,08,19,05,41,17.20
2016,08,19,05,42,17.20
2016,08,19,05,43,17.20
2016,08,19,05,44,17.20
2016,08,19,05,45,17.10
2016,08,19,05,46,17.10
2016,08,19,05,47,17.10
2016,08,19,05,48,17.10
2016,08,19,05,49,17.10
2016,08,19,05,50,17.10
2016,08,19,05,51,17.10
2016,08,19,05,52,17.10
2016,08,19,05,53,17.10
2016,08,19,05,54,17.00
2016,08,19,05,55,17.00
2016,08,19,05,56,17.00
2016,08,19,05,57,17.00
2016,08,19,05,58,17.00
2016,08,19,05,59,17.00
2016,08,19,06,00,17.10
2016,08,19,06,01,17.10
2016,08,19,06,02,17.10
2016,08,19,06,03,17.10
2016,08,19,06,04,17.10
2016,08,19,06,05,17.10
2016,08,19,06,06,17.20
2016,08,19,06,07,17.20
2016,08,19,06,08,17.20
2016,08,19,06,09,17.20
2016,08,19,06,10,17.20
2016,08,19,06,11,17.20
2016,08,19,06,12,17.20
2016,08,19,06,13,17.10
2016,08,19,06,14,17.10
2016,08,19,06,15,17.10
2016,08,19,06,16,17.10
2016,08,19,06,17,17.00
2016,08,19,06,18,17.00
2016,08,19,06,19,17.00
2016,08,19,06,20,17.00
2016,08,19,06,21,17.10
2016,08,19,06,22,17.10
2016,08,19,06,23,17.10
2016,08,19,06,24,17.10
2016,08,19,06,25,17.10
2016,08,19,06,26,17.20
2016,08,19,06,27,17.20
2016,08,19,06,28,17.20
2016,08,19,06,29,17.20
2016,08,19,06,30,17.20
2016,08,19,06,31,17.30
2016,08,19,06,32,17.30
2016,08,19,06,33,17.30
2016,08,19,06,34,17.30
2016,08,19,06,35,17.40
2016,08,19,06,36,17.40
2016,08,19,06,37,17.50
2016,08,19,06,38,17.50
2016,08,19,06,39,17.60
2016,08,19,06,40,17.70
2016,08,19,06,41,17.70
2016,08,19,06,42,17.80
2016,08,19,06,43,17.80
2016,08,19,06,44,17.80
2016,08,19,06,45,17.80
2016,08,19,06,46,17.80
2016,08,19,06,47,17.80
2016,08,19,06,48,17.80
2016,08,19,06,49,17.90
2016,08,19,06,50,17.90
2016,08,19,06,51,17.90
2016,08,19,06,52,17.80
2016,08,19,06,53,17.80
2016,08,19,06,54,17.80
2016,08,19,06,55,17.80
2016,08,19,06,56,17.70
2016,08,19,06,57,17.70
2016,08,19,06,58,17.70
2016,08,19,06,59,17.70
2016,08,19,07,00,17.70
2016,08,19,07,01,17.70
2016,08,19,07,02,17.70
2016,08,19,07,03,17.70
2016,08,19,07,04,17.80
2016,08,19,07,05,17.80
2016,08,19,07,06,17.80
2016,08,19,07,07,17.80
2016,08,19,07,08,17.80
2016,08,19,07,09,17.70
2016,08,19,07,10,17.70
2016,08,19,07,11,17.60
2016,08,19,07,12,17.60
2016,08,19,07,13,17.50
2016,08,19,07,14,17.50
2016,08,19,07,15,17.40
2016,08,19,07,16,17.40
2016,08,19,07,17,17.30
2016,08,19,07,18,17.30
2016,08,19,07,19,17.30
2016,08,19,07,20,17.30
2016,08,19,07,21,17.30
2016,08,19,07,22,17.30
2016,08,19,07,23,17.30
2016,08,19,07,24,17.30
2016,08,19,07,25,17.30
2016,08,19,07,26,17.30
2016,08,19,07,27,17.40
2016,08,19,07,28,17.40
2016,08,19,07,29,17.40
2016,08,19,07,30,17.40
2016,08,19,07,31,17.50
2016,08,19,07,32,17.50
2016,08,19,07,33,17.60
2016,08,19,07,34,17.60
2016,08,19,07,35,17.60
2016,08,19,07,36,17.70
2016,08,19,07,37,17.70
2016,08,19,07,38,17.70
2016,08,19,07,39,17.80
2016,08,19,07,40,17.80
2016,08,19,07,41,17.80
2016,08,19,07,42,17.80
2016,08,19,07,43,17.80
2016,08,19,07,44,17.80
2016,08,19,07,45,17.80
2016,08,19,07,46,17.80
2016,08,19,07,47,17.80
2016,08,19,07,48,17.90
2016,08,19,07,49,17.90
2016,08,19,07,50,17.90
2016,08,19,07,51,17.90
2016,08,19,07,52,18.00
2016,08,19,07,53,18.00
2016,08,19,07,54,18.00
2016,08,19,07,55,18.10
2016,08,19,07,56,18.10
2016,08,19,07,57,18.10
2016,08,19,07,58,18.00
2016,08,19,07,59,18.00
2016,08,19,08,00,18.00
2016,08,19,08,01,17.90
2016,08,19,08,02,17.90
2016,08,19,08,03,17.90
2016,08,19,08,04,17.90
2016,08,19,08,05,17.90
2016,08,19,08,06,17.90
2016,08,19,08,07,17.90
2016,08,19,08,08,17.90
2016,08,19,08,09,17.90
2016,08,19,08,10,17.90
2016,08,19,08,11,17.90
2016,08,19,08,12,17.90
2016,08,19,08,13,17.90
2016,08,19,08,14,17.90
2016,08,19,08,15,18.00
2016,08,19,08,16,18.10
2016,08,19,08,17,18.10
2016,08,19,08,18,18.20
2016,08,19,08,19,18.20
2016,08,19,08,20,18.20
2016,08,19,08,21,18.30
2016,08,19,08,22,18.30
2016,08,19,08,23,18.30
2016,08,19,08,24,18.30
2016,08,19,08,25,18.30
2016,08,19,08,26,18.40
2016,08,19,08,27,18.40
2016,08,19,08,28,18.40
2016,08,19,08,29,18.40
2016,08,19,08,30,18.50
2016,08,19,08,31,18.50
2016,08,19,08,32,18.50
2016,08,19,08,33,18.60
2016,08,19,08,34,18.60
2016,08,19,08,35,18.60
2016,08,19,08,36,18.70
2016,08,19,08,37,18.70
2016,08,19,08,38,18.80
2016,08,19,08,39,18.80
2016,08,19,08,40,18.80
2016,08,19,08,41,18.90
2016,08,19,08,42,18.90
2016,08,19,08,43,18.90
2016,08,19,08,44,19.00
2016,08,19,08,45,19.00
2016,08,19,08,46,19.00
2016,08,19,08,47,19.00
2016,08,19,08,48,19.10
2016,08,19,08,49,19.10
2016,08,19,08,50,19.00
2016,08,19,08,51,19.00
2016,08,19,08,52,19.00
2016,08,19,08,53,19.00
2016,08,19,08,54,19.00
2016,08,19,08,55,19.00
2016,08,19,08,56,19.00
2016,08,19,08,57,18.90
2016,08,19,08,58,18.90
2016,08,19,08,59,19.00
2016,08,19,09,00,19.00
2016,08,19,09,01,19.00
2016,08,19,09,02,19.00
2016,08,19,09,03,19.10
2016,08,19,09,04,19.10
2016,08,19,09,05,19.10
2016,08,19,09,06,19.10
2016,08,19,09,07,19.20
2016,08,19,09,08,19.20
2016,08,19,09,09,19.20
2016,08,19,09,10,19.20
2016,08,19,09,11,19.20
2016,08,19,09,12,19.20
2016,08,19,09,13,19.20
2016,08,19,09,14,19.20
2016,08,19,09,15,19.20
2016,08,19,09,16,19.20
2016,08,19,09,17,19.20
2016,08,19,09,18,19.30
2016,08,19,09,19,19.30
2016,08,19,09,20,19.30
2016,08,19,09,21,19.30
2016,08,19,09,22,19.30
2016,08,19,09,23,19.30
2016,08,19,09,24,19.40
2016,08,19,09,25,19.40
2016,08,19,09,26,19.40
2016,08,19,09,27,19.40
2016,08,19,09,28,19.50
2016,08,19,09,29,19.60
2016,08,19,09,30,19.60
2016,08,19,09,31,19.70
2016,08,19,09,32,19.80
2016,08,19,09,33,19.90
2016,08,19,09,34,20.00
2016,08,19,09,35,20.10
2016,08,19,09,36,20.20
2016,08,19,09,37,20.30
2016,08,19,09,38,20.40
2016,08,19,09,39,20.40
2016,08,19,09,40,20.50
2016,08,19,09,41,20.50
2016,08,19,09,42,20.60
2016,08,19,09,43,20.60
2016,08,19,09,44,20.60
2016,08,19,09,45,20.70
2016,08,19,09,46,20.70
2016,08,19,09,47,20.70
2016,08,19,09,48,20.70
2016,08,19,09,49,20.70
2016,08,19,09,50,20.70
2016,08,19,09,51,20.70
2016,08,19,09,52,20.80
2016,08,19,09,53,20.90
2016,08,19,09,54,20.90
2016,08,19,09,55,21.00
2016,08,19,09,56,21.00
2016,08,19,09,57,21.10
2016,08,19,09,58,21.10
2016,08,19,09,59,21.20
2016,08,19,10,00,21.20
2016,08,19,10,01,21.20
2016,08,19,10,02,21.20
2016,08,19,10,03,21.20
2016,08,19,10,04,21.20
2016,08,19,10,05,21.20
2016,08,19,10,06,21.20
2016,08,19,10,07,21.30
2016,08,19,10,08,21.30
2016,08,19,10,09,21.40
2016,08,19,10,10,21.40
2016,08,19,10,11,21.40
2016,08,19,10,12,21.40
2016,08,19,10,13,21.40
2016,08,19,10,14,21.40
2016,08,19,10,15,21.40
2016,08,19,10,16,21.40
2016,08,19,10,17,21.40
2016,08,19,10,18,21.40
2016,08,19,10,19,21.40
2016,08,19,10,20,21.40
2016,08,19,10,21,21.50
2016,08,19,10,22,21.50
2016,08,19,10,23,21.50
2016,08,19,10,24,21.60
2016,08,19,10,25,21.60
2016,08,19,10,26,21.60
2016,08,19,10,27,21.70
2016,08,19,10,28,21.80
2016,08,19,10,29,21.80
2016,08,19,10,30,21.90
2016,08,19,10,31,21.90
2016,08,19,10,32,22.00
2016,08,19,10,33,22.00
2016,08,19,10,34,22.10
2016,08,19,10,35,22.10
2016,08,19,10,36,22.20
2016,08,19,10,37,22.30
2016,08,19,10,38,22.40
2016,08,19,10,39,22.40
2016,08,19,10,40,22.40
2016,08,19,10,41,22.50
2016,08,19,10,42,22.50
2016,08,19,10,43,22.50
2016,08,19,10,44,22.60
2016,08,19,10,45,22.60
2016,08,19,10,46,22.60
2016,08,19,10,47,22.60
2016,08,19,10,48,22.60
2016,08,19,10,49,22.70
2016,08,19,10,50,22.80
2016,08,19,10,51,22.80
2016,08,19,10,52,22.90
2016,08,19,10,53,23.00
2016,08,19,10,54,23.00
2016,08,19,10,55,23.10
2016,08,19,10,56,23.10
2016,08,19,10,57,23.20
2016,08,19,10,58,23.20
2016,08,19,10,59,23.30
2016,08,19,11,00,23.40
2016,08,19,11,01,23.50
2016,08,19,11,02,23.60
2016,08,19,11,03,23.60
2016,08,19,11,04,23.70
2016,08,19,11,05,23.80
2016,08,19,11,06,23.80
2016,08,19,11,07,23.90
2016,08,19,11,08,23.90
2016,08,19,11,09,24.00
2016,08,19,11,10,24.00
2016,08,19,11,11,24.10
2016,08,19,11,12,24.10
2016,08,19,11,13,24.10
2016,08,19,11,14,24.00
2016,08,19,11,15,24.00
2016,08,19,11,16,24.00
2016,08,19,11,17,24.00
2016,08,19,11,18,24.00
2016,08,19,11,19,23.90
2016,08,19,11,20,23.90
2016,08,19,11,21,23.90
2016,08,19,11,22,23.90
2016,08,19,11,23,23.90
2016,08,19,11,24,23.90
2016,08,19,11,25,23.90
2016,08,19,11,26,23.90
2016,08,19,11,27,23.90
2016,08,19,11,28,23.90
2016,08,19,11,29,24.00
2016,08,19,11,30,24.10
2016,08,19,11,31,24.20
2016,08,19,11,32,24.20
2016,08,19,11,33,24.30
2016,08,19,11,34,24.40
2016,08,19,11,35,24.50
2016,08,19,11,36,24.50
2016,08,19,11,37,24.60
2016,08,19,11,38,24.70
2016,08,19,11,39,24.80
2016,08,19,11,40,24.80
2016,08,19,11,41,24.80
2016,08,19,11,42,24.80
2016,08,19,11,43,24.80
2016,08,19,11,44,24.80
2016,08,19,11,45,24.90
2016,08,19,11,46,24.90
2016,08,19,11,47,24.90
2016,08,19,11,48,25.00
2016,08,19,11,49,25.00
2016,08,19,11,50,25.00
2016,08,19,11,51,25.10
2016,08,19,11,52,25.10
2016,08,19,11,53,25.10
2016,08,19,11,54,25.10
2016,08,19,11,55,25.10
2016,08,19,11,56,25.10
2016,08,19,11,57,25.00
2016,08,19,11,58,25.00
2016,08,19,11,59,24.90
2016,08,19,12,00,24.90
2016,08,19,12,01,24.90
2016,08,19,12,02,24.90
2016,08,19,12,03,24.90
2016,08,19,12,04,24.90
2016,08,19,12,05,25.00
2016,08,19,12,06,25.00
2016,08,19,12,07,25.00
2016,08,19,12,08,25.10
2016,08,19,12,09,25.10
2016,08,19,12,10,25.20
2016,08,19,12,11,25.30
2016,08,19,12,12,25.40
2016,08,19,12,13,25.40
2016,08,19,12,14,25.40
2016,08,19,12,15,25.40
2016,08,19,12,16,25.40
2016,08,19,12,17,25.40
2016,08,19,12,18,25.40
2016,08,19,12,19,25.30
2016,08,19,12,20,25.30
2016,08,19,12,21,25.20
2016,08,19,12,22,25.20
2016,08,19,12,23,25.20
2016,08,19,12,24,25.20
2016,08,19,12,25,25.20
2016,08,19,12,26,25.20
2016,08,19,12,27,25.30
2016,08,19,12,28,25.30
2016,08,19,12,29,25.30
2016,08,19,12,30,25.40
2016,08,19,12,31,25.40
2016,08,19,12,32,25.50
2016,08,19,12,33,25.50
2016,08,19,12,34,25.60
2016,08,19,12,35,25.70
2016,08,19,12,36,25.70
2016,08,19,12,37,25.80
2016,08,19,12,38,25.80
2016,08,19,12,39,25.80
2016,08,19,12,40,25.80
2016,08,19,12,41,25.80
2016,08,19,12,42,25.80
2016,08,19,12,43,25.80
2016,08,19,12,44,25.80
2016,08,19,12,45,25.80
2016,08,19,12,46,25.90
2016,08,19,12,47,25.90
2016,08,19,12,48,26.00
2016,08,19,12,49,26.10
2016,08,19,12,50,26.10
2016,08,19,12,51,26.10
2016,08,19,12,52,26.10
2016,08,19,12,53,26.20
2016,08,19,12,54,26.20
2016,08,19,12,55,26.20
2016,08,19,12,56,26.20
2016,08,19,12,57,26.10
2016,08,19,12,58,26.10
2016,08,19,12,59,26.10
2016,08,19,13,00,26.10
2016,08,19,13,01,26.10
2016,08,19,13,02,26.20
2016,08,19,13,03,26.20
2016,08,19,13,04,26.20
2016,08,19,13,05,26.20
2016,08,19,13,06,26.20
2016,08,19,13,07,26.20
2016,08,19,13,08,26.30
2016,08,19,13,09,26.30
2016,08,19,13,10,26.30
2016,08,19,13,11,26.40
2016,08,19,13,12,26.40
2016,08,19,13,13,26.40
2016,08,19,13,14,26.40
2016,08,19,13,15,26.50
2016,08,19,13,16,26.60
2016,08,19,13,17,26.70
2016,08,19,13,18,26.80
2016,08,19,13,19,26.80
2016,08,19,13,20,26.90
2016,08,19,13,21,26.90
2016,08,19,13,22,26.90
2016,08,19,13,23,27.00
2016,08,19,13,24,27.00
2016,08,19,13,25,27.00
2016,08,19,13,26,27.10
2016,08,19,13,27,27.10
2016,08,19,13,28,27.20
2016,08,19,13,29,27.30
2016,08,19,13,30,27.30
2016,08,19,13,31,27.40
2016,08,19,13,32,27.40
2016,08,19,13,33,27.40
2016,08,19,13,34,27.40
2016,08,19,13,35,27.40
2016,08,19,13,36,27.40
2016,08,19,13,37,27.40
2016,08,19,13,38,27.50
2016,08,19,13,39,27.50
2016,08,19,13,40,27.50
2016,08,19,13,41,27.60
2016,08,19,13,42,27.60
2016,08,19,13,43,27.60
2016,08,19,13,44,27.50
2016,08,19,13,45,27.50
2016,08,19,13,46,27.40
2016,08,19,13,47,27.40
2016,08,19,13,48,27.40
2016,08,19,13,49,27.50
2016,08,19,13,50,27.50
2016,08,19,13,51,27.50
2016,08,19,13,52,27.50
2016,08,19,13,53,27.50
2016,08,19,13,54,27.50
2016,08,19,13,55,27.50
2016,08,19,13,56,27.50
2016,08,19,13,57,27.60
2016,08,19,13,58,27.70
2016,08,19,13,59,27.80
2016,08,19,14,00,27.90
2016,08,19,14,01,28.00
2016,08,19,14,02,28.00
2016,08,19,14,03,28.10
2016,08,19,14,04,28.10
2016,08,19,14,05,28.10
2016,08,19,14,06,28.10
2016,08,19,14,07,28.20
2016,08,19,14,08,28.30
2016,08,19,14,09,28.30
2016,08,19,14,10,28.30
2016,08,19,14,11,28.30
2016,08,19,14,12,28.30
2016,08,19,14,13,28.30
2016,08,19,14,14,28.30
2016,08,19,14,15,28.20
2016,08,19,14,16,28.10
2016,08,19,14,17,28.00
2016,08,19,14,18,27.90
2016,08,19,14,19,27.80
2016,08,19,14,20,27.80
2016,08,19,14,21,27.80
2016,08,19,14,22,27.80
2016,08,19,14,23,27.80
2016,08,19,14,24,27.80
2016,08,19,14,25,27.80
2016,08,19,14,26,27.80
2016,08,19,14,27,27.80
2016,08,19,14,28,27.80
2016,08,19,14,29,27.80
2016,08,19,14,30,27.80
2016,08,19,14,31,27.70
2016,08,19,14,32,27.70
2016,08,19,14,33,27.60
2016,08,19,14,34,27.60
2016,08,19,14,35,27.60
2016,08,19,14,36,27.60
2016,08,19,14,37,27.60
2016,08,19,14,38,27.60
2016,08,19,14,39,27.60
2016,08,19,14,40,27.60
2016,08,19,14,41,27.70
2016,08,19,14,42,27.70
2016,08,19,14,43,27.80
2016,08,19,14,44,27.90
2016,08,19,14,45,28.00
2016,08,19,14,46,28.10
2016,08,19,14,47,28.30
2016,08,19,14,48,28.40
2016,08,19,14,49,28.50
2016,08,19,14,50,28.70
2016,08,19,14,51,28.80
2016,08,19,14,52,28.80
2016,08,19,14,53,28.80
2016,08,19,14,54,28.90
2016,08,19,14,55,28.90
2016,08,19,14,56,29.00
2016,08,19,14,57,29.00
2016,08,19,14,58,28.90
2016,08,19,14,59,28.90
2016,08,19,15,00,28.90
2016,08,19,15,01,28.80
2016,08,19,15,02,28.80
2016,08,19,15,03,28.80
2016,08,19,15,04,28.80
2016,08,19,15,05,28.80
2016,08,19,15,06,28.80
2016,08,19,15,07,28.80
2016,08,19,15,08,28.80
2016,08,19,15,09,28.90
2016,08,19,15,10,29.00
2016,08,19,15,11,29.10
2016,08,19,15,12,29.20
2016,08,19,15,13,29.20
2016,08,19,15,14,29.30
2016,08,19,15,15,29.40
2016,08,19,15,16,29.40
2016,08,19,15,17,29.50
2016,08,19,15,18,29.60
2016,08,19,15,19,29.70
2016,08,19,15,20,29.80
2016,08,19,15,21,29.90
2016,08,19,15,22,30.00
2016,08,19,15,23,30.20
2016,08,19,15,24,30.30
2016,08,19,15,25,30.40
2016,08,19,15,26,30.40
2016,08,19,15,27,30.40
2016,08,19,15,28,30.40
2016,08,19,15,29,30.40
2016,08,19,15,30,30.40
2016,08,19,15,31,30.40
2016,08,19,15,32,30.30
2016,08,19,15,33,30.30
2016,08,19,15,34,30.30
2016,08,19,15,35,30.40
2016,08,19,15,36,30.40
2016,08,19,15,37,30.40
2016,08,19,15,38,30.40
2016,08,19,15,39,30.30
2016,08,19,15,40,30.30
2016,08,19,15,41,30.40
2016,08,19,15,42,30.40
2016,08,19,15,43,30.50
2016,08,19,15,44,30.50
2016,08,19,15,45,30.50
2016,08,19,15,46,30.50
2016,08,19,15,47,30.40
2016,08,19,15,48,30.40
2016,08,19,15,49,30.40
2016,08,19,15,50,30.40
2016,08,19,15,51,30.40
2016,08,19,15,52,30.50
2016,08,19,15,53,30.60
2016,08,19,15,54,30.60
2016,08,19,15,55,30.70
2016,08,19,15,56,30.70
2016,08,19,15,57,30.70
2016,08,19,15,58,30.70
2016,08,19,15,59,30.70
2016,08,19,16,00,30.80
2016,08,19,16,01,30.80
2016,08,19,16,02,30.80
2016,08,19,16,03,30.70
2016,08,19,16,04,30.70
2016,08,19,16,05,30.70
2016,08,19,16,06,30.70
2016,08,19,16,07,30.70
2016,08,19,16,08,30.70
2016,08,19,16,09,30.70
2016,08,19,16,10,30.70
2016,08,19,16,11,30.70
2016,08,19,16,12,30.60
2016,08,19,16,13,30.60
2016,08,19,16,14,30.60
2016,08,19,16,15,30.50
2016,08,19,16,16,30.50
2016,08,19,16,17,30.50
2016,08,19,16,18,30.50
2016,08,19,16,19,30.60
2016,08,19,16,20,30.60
2016,08,19,16,21,30.60
2016,08,19,16,22,30.70
2016,08,19,16,23,30.70
2016,08,19,16,24,30.70
2016,08,19,16,25,30.80
2016,08,19,16,26,30.80
2016,08,19,16,27,30.80
2016,08,19,16,28,30.90
2016,08,19,16,29,30.90
2016,08,19,16,30,30.90
2016,08,19,16,31,31.00
2016,08,19,16,32,31.10
2016,08,19,16,33,31.10
2016,08,19,16,34,31.10
2016,08,19,16,35,31.20
2016,08,19,16,36,31.20
2016,08,19,16,37,31.20
2016,08,19,16,38,31.20
2016,08,19,16,39,31.20
2016,08,19,16,40,31.20
2016,08,19,16,41,31.20
2016,08,19,16,42,31.20
2016,08,19,16,43,31.20
2016,08,19,16,44,31.20
2016,08,19,16,45,31.20
2016,08,19,16,46,31.20
2016,08,19,16,47,31.30
2016,08,19,16,48,31.30
2016,08,19,16,49,31.20
2016,08,19,16,50,31.20
2016,08,19,16,51,31.20
2016,08,19,16,52,31.20
2016,08,19,16,53,31.10
2016,08,19,16,54,31.10
2016,08,19,16,55,31.10
2016,08,19,16,56,31.10
2016,08,19,16,57,31.10
2016,08,19,16,58,31.20
2016,08,19,16,59,31.20
2016,08,19,17,00,31.20
2016,08,19,17,01,31.20
2016,08,19,17,02,31.30
2016,08,19,17,03,31.30
2016,08,19,17,04,31.30
2016,08,19,17,05,31.30
2016,08,19,17,06,31.30
2016,08,19,17,07,31.30
2016,08,19,17,08,31.30
2016,08,19,17,09,31.20
2016,08,19,17,10,31.20
2016,08,19,17,11,31.30
2016,08,19,17,12,31.30
2016,08,19,17,13,31.40
2016,08,19,17,14,31.40
2016,08,19,17,15,31.40
2016,08,19,17,16,31.50
2016,08,19,17,17,31.50
2016,08,19,17,18,31.50
2016,08,19,17,19,31.50